Location: Hurstbourne Priors
(51.2000°N, 1.3667°W)
Time: 09:27:54
(UTC+00:00)

Cosmos 1812 Rocket - Pass Details

Date: 09 April 2020
Orbit: 606 x 631 km, 82.5° (Epoch: 23 May)

Event Time Altitude Azimuth Distance (km) Brightness Sun altitude
Exits shadow 21:02:26 20° 191° (S) 1,407 5.1 -18.8°
Maximum altitude 21:05:22 86° 278° (W) 617 3.5 -19.1°
Drops below altitude 10° 21:09:45 10° 10° (N) 1,971 6.6 -19.6°
Sets 21:11:58 0° 11° (N) 2,879 7.4 -19.9°
